User: anonymous   Login
Location: Unspecified
(0.0000°N, 0.0000°E)
Time: 00:09:53
(UTC+00:00)
Language:

CUTE 1.7 + AOD 2 - Orbit

View from above orbital plane
View from above orbital plane
View from above satellite
View from above satellite

Ground track
Ground track

The orbit data is extracted from the following two-line orbital elements,

1 32785U 08021C   17080.47852945 +.00000243 +00000-0 +32259-4 0  9990
2 32785 097.5752 108.7210 0014752 098.5237 261.7653 14.87821214481780
Epoch (UTC): 21 March 2017 11:29:04
Eccentricity: 0.0014752
inclination: 97.5752°
perigee height: 594 km
apogee height: 615 km
right ascension of ascending node: 108.7210°
argument of perigee: 98.5237°
revolutions per day: 14.87821214
mean anomaly at epoch: 261.7653°
orbit number at epoch: 48178

The dashed part of the orbit path shows where the satellite is in the earth's shadow,  

DLR